Погода в Усть-Миасском

Россия / Курганская область     56°02′35″N   64°28′26″E
темп.,
°C
ветер,
м/с
пор.,
м/с
влажн.,
%
обл.,
%
осадки,
мм/ч
давл.,
гПа
погр.,
м
16 июня, ср
ср1623:00+19зюз3384100 0.3 101436
02:00+17з359181 0.3 101479
05:00+16з359295 0.4 1015110
08:00+21зсз347477 0.0 1015344
11:00+26з3455100 0.0 1015849
14:00+28з4546100 0.0 10141916
17:00+28зсз45445 0.0 10132083
20:00+25юз22613 0.0 101227
17 июня, чт
чт1723:00+18юз5138592 0.8 1013257
02:00+16ююз358914 0.0 101075
05:00+16юз5158611 0.0 1010306
08:00+21ююз576747 0.0 1008263
11:00+23юз486089 0.0 1006365
14:00+29зюз6943100 0.0 10042031
17:00+29з694891 0.0 10022232
20:00+18з5119094 2.1 1004522
18 июня, пт
пт1823:00+16с5109296 2.1 1006627
02:00+12с613912 0.1 1008549
05:00+11с512820 0.1 1010625
08:00+13с711570 0.0 1012963
11:00+16с810410 0.0 10141562
14:00+18с89355 0.0 10142148
17:00+18с89335 0.0 10162468
20:00+15ссз47502 0.0 1017197
19 июня, сб
сб1923:00+10сз46549 0.0 101880
02:00+9зсз36635 0.0 101985
05:00+9зсз36625 0.0 101993
08:00+15сз4650100 0.0 1019487
11:00+19сз5842100 0.0 10192010
14:00+20сз684197 0.0 10172388
17:00+13зсз4978100 0.1 1017456
20:00+12юз5128799 0.4 1014483
20 июня, вс
вс2023:00+13зюз51195100 0.5 1012419
02:00+14зюз51198100 0.0 1009358
05:00+15з4119899 0.7 1007402
08:00+18сз81382100 0.6 10061233
11:00+17ссз11144310 0.6 10081268
14:00+19ссз1115290 0.0 10092200
17:00+19ссз915325 0.0 10102651
20:00+16ссз1016350 0.0 10121470